This demonstration page uses our WeatherBlox Daily Observations layout. Learn more.

Left ArrowRight Arrow

47.50024, -111.30081

Hourly Observations for May 17, 2015

Temp ( °F °C ) Dew Point ( °F °C ) Humidity (%) Winds ( mph kmh ) Pressure ( in mb ) Visibility ( mi km ) Precip ( " mm )
12:38 am 00:38 Cloudy with Light Rain 43 6 41 5 93 93 N 13 20 30.06 1018 7 11 0.00 0.00
12:53 am 00:53 Cloudy with Light Rain 42 5.6 41 5 96 96 N 13 20 30.08 1019 7 11 0.02 0.51
1:40 am 01:40 Cloudy with Light Rain 43 6 41 5 93 93 N 14 22 30.09 1019 10 16 0.00 0.00
1:53 am 01:53 Cloudy with Light Rain 43 6.1 41 5 93 93 N 13 20 30.10 1019 9 14 0.01 0.25
2:07 am 02:07 Cloudy with Light Rain 42 5.6 41 5 96 96 N 16 26 30.09 1019 8 13 0.00 0.03
2:18 am 02:18 Cloudy with Light Rain 42 5.6 41 5 96 96 N 13 20 30.09 1019 8 13 0.00 0.03
2:33 am 02:33 Cloudy with Light Rain 43 6.1 41 5 93 93 N 14 22 30.09 1019 8 13 0.01 0.25
2:53 am 02:53 Cloudy with Light Rain 43 6.1 41 5 93 93 N 13 20 30.12 1020 8 13 0.01 0.25
3:53 am 03:53 Cloudy with Light Rain 43 6.1 41 5 93 93 N 12 19 30.14 1021 8 13 0.01 0.25
4:53 am 04:53 Cloudy with Light Rain 42 5.6 41 5 96 96 N 9 15 30.17 1022 8 13 0.02 0.51
5:53 am 05:53 Cloudy with Light Rain 42 5.6 42 5.6 100 100 NW 10 17 30.19 1022 8 13 0.01 0.25
6:11 am 06:11 Cloudy with Light Rain 40 4.4 39 3.9 97 97 NW 10 17 30.18 1022 7 11 0.01 0.25
6:24 am 06:24 Cloudy with Light Rain 39 4 39 4 100 100 NW 8 13 30.21 1023 10 16 0.00 0.00
6:38 am 06:38 Cloudy with Light Rain 39 4 39 4 100 100 NW 8 13 30.21 1023 7 11 0.00 0.00
6:53 am 06:53 Cloudy with Rain 41 5 40 4.4 96 96 NW 13 20 30.21 1023 5 8 0.08 2.03
7:31 am 07:31 Cloudy with Light Rain 41 5 40 4.4 96 96 NE 14 22 30.21 1023 9 14 0.03 0.76
7:53 am 07:53 Cloudy with Light Rain 41 5 39 3.9 93 93 NE 15 24 30.24 1024 10 16 0.04 1.02
8:53 am 08:53 Cloudy with Light Rain 39 3.9 37 2.8 93 93 NNE 20 31 30.28 1026 7 11 0.04 1.02
9:53 am 09:53 Cloudy with Light Rain 37 2.8 35 1.7 93 93 N 17 28 30.32 1027 10 16 0.03 0.76
10:53 am 10:53 Cloudy with Light Rain 36 2.2 34 1.1 93 93 N 18 30 30.36 1028 10 16 0.00 0.03
11:53 am 11:53 Cloudy with Light Rain 37 2.8 35 1.7 93 93 N 15 24 30.38 1029 10 16 0.02 0.51
12:11 pm 12:11 Cloudy with Light Rain 37 2.8 35 1.7 93 93 NNW 14 22 30.36 1028 10 16 0.00 0.03
12:53 pm 12:53 Cloudy 38 3.3 35 1.7 89 89 NNW 12 19 30.39 1029 10 16 0.00 0.03
1:11 pm 13:11 Cloudy with Light Rain 38 3.3 35 1.7 89 89 NNW 8 13 30.36 1028 9 14 0.00 0.03
1:53 pm 13:53 Cloudy with Light Rain 38 3.3 35 1.7 89 89 NW 9 15 30.39 1029 10 16 0.00 0.03
2:09 pm 14:09 Cloudy with Light Rain 39 3.9 36 2.2 89 89 NNW 13 20 30.36 1028 10 16 0.00 0.03
2:17 pm 14:17 Cloudy with Light Rain 38 3.3 35 1.7 89 89 NW 10 17 30.42 1030 10 16 0.00 0.03
2:53 pm 14:53 Cloudy with Light Rain 39 3.9 36 2.2 89 89 NW 10 17 30.40 1029 10 16 0.00 0.03
3:08 pm 15:08 Cloudy with Light Rain 39 4 36 2 87 87 NNW 9 15 30.39 1029 10 16 0.00 0.00
3:15 pm 15:15 Cloudy with Light Rain 40 4.4 35 1.7 83 83 N 9 15 30.39 1029 10 16 0.00 0.03
3:24 pm 15:24 Cloudy 39 4 36 2 87 87 N 9 15 30.39 1029 10 16 0.00 0.00
3:33 pm 15:33 Cloudy with Light Rain 40 4.4 35 1.7 83 83 N 10 17 30.39 1029 10 16 0.00 0.03
3:41 pm 15:41 Cloudy with Light Rain 39 3.9 36 2.2 89 89 N 8 13 30.39 1029 10 16 0.00 0.03
3:47 pm 15:47 Cloudy with Light Rain 39 4 36 2 87 87 N 8 13 30.39 1029 10 16 0.00 0.03
3:48 pm 15:48 Cloudy with Light Rain 40 4.4 36 2.2 86 86 N 8 13 30.39 1029 10 16 0.00 0.03
4:26 pm 16:26 Cloudy 41 5 36 2 81 81 N 8 13 30.39 1029 10 16 0.00 0.00
4:53 pm 16:53 Cloudy 42 5.6 36 2.2 79 79 NNW 8 13 30.40 1029 10 16 0.00 0.03
5:53 pm 17:53 Cloudy 41 5 34 1.1 76 76 N 6 9 30.41 1030 10 16 0.00 0.00
6:53 pm 18:53 Cloudy 43 6.1 33 0.6 68 68 Calm 30.40 1030 10 16 0.00 0.00
7:53 pm 19:53 Cloudy 42 5.6 32 0 68 68 Calm 30.40 1030 10 16 0.00 0.00
8:41 pm 20:41 Cloudy 41 5 34 1.1 76 76 S 3 6 30.39 1029 10 16 0.00 0.00
8:53 pm 20:53 Cloudy 41 5 34 1.1 76 76 S 5 7 30.42 1030 10 16 0.00 0.00
9:00 pm 21:00 Cloudy 41 5 34 1 76 76 S 5 7 30.39 1029 10 16 0.00 0.00
9:53 pm 21:53 Cloudy 40 4.4 35 1.7 83 83 S 5 7 30.44 1031 10 16 0.00 0.00
10:53 pm 22:53 Cloudy 39 3.9 36 2.2 89 89 SW 6 9 30.45 1031 10 16 0.00 0.00
11:53 pm 23:53 Cloudy 38 3.3 36 2.2 93 93 SSW 6 9 30.45 1031 10 16 0.00 0.00

Powered by AerisWeather